This is the latest recevied weather packets stored in our database for station/object SR6NWB-11. If no packets are shown the sender has not sent any weather packets the latest 1 day(s).
| Time | Temp. | Humidity | Pressure | Rain* | Wind** | Luminosity | Snow |
|---|---|---|---|---|---|---|---|
| 1778000967 | 17.78° C | 55% | 1011.8 hPa | 0 mm | 0 m/s | - | - |
| 1778000467 | 18.33° C | 49% | 1012.1 hPa | 0 mm | 0 m/s | - | - |
| 1777999932 | 18.89° C | 44% | 1011.8 hPa | 0 mm | 0 m/s | - | - |
| 1777999402 | 19.44° C | 38% | 1011.8 hPa | 0 mm | 0 m/s | - | - |
| 1777998847 | 20° C | 37% | 1011.8 hPa | 0 mm | 0 m/s | - | - |
| 1777998292 | 20.56° C | 37% | 1011.8 hPa | 0 mm | 0 m/s | - | - |
| 1777997812 | 20.56° C | 36% | 1011.9 hPa | 0 mm | 0 m/s | - | - |
| 1777997292 | 21.11° C | 35% | 1011.9 hPa | 0 mm | 0 m/s | - | - |
| 1777996703 | 21.67° C | 34% | 1011.9 hPa | 0 mm | 0 m/s | - | - |
| 1777996127 | 22.78° C | 33% | 1011.9 hPa | 0 mm | 0 m/s | - | - |
| 1777995527 | 22.78° C | 33% | 1012 hPa | 0 mm | 0 m/s | - | - |
| 1777994947 | 22.78° C | 32% | 1012 hPa | 0 mm | 0 m/s | - | - |
| 1777994432 | 22.78° C | 33% | 1012 hPa | 0 mm | 0 m/s | - | - |
| 1777993912 | 22.22° C | 33% | 1012 hPa | 0 mm | 0 m/s | - | - |
| 1777993397 | 22.22° C | 33% | 1012.2 hPa | 0 mm | 0 m/s | - | - |
| 1777992886 | 22.22° C | 33% | 1012.1 hPa | 0 mm | 0 m/s | - | - |
| 1777992407 | 22.78° C | 33% | 1012.2 hPa | 0 mm | 0 m/s | - | - |
| 1777991853 | 23.33° C | 32% | 1012.3 hPa | 0 mm | 0 m/s | - | - |
| 1777991367 | 22.78° C | 33% | 1012.3 hPa | 0 mm | 0 m/s | - | - |
| 1777990767 | 22.78° C | 33% | 1012.4 hPa | 0 mm | 0 m/s | - | - |
| 1777990192 | 22.78° C | 34% | 1012.5 hPa | 0 mm | 0 m/s | - | - |
| 1777989702 | 22.78° C | 34% | 1012.5 hPa | 0 mm | 0 m/s | - | - |
| 1777989212 | 22.22° C | 34% | 1012.5 hPa | 0 mm | 0 m/s | - | - |
| 1777988642 | 22.22° C | 35% | 1012.6 hPa | 0 mm | 0 m/s | - | - |
| 1777988100 | 21.67° C | 36% | 1012.7 hPa | 0 mm | 0 m/s | - | - |
* Rain latest hour (hover to see other rain measurements)
** Current wind speed in m/s (hover to see current wind gust speed)